Regional Weather Roundup
Issued by NWS

Home | Current Version | Previous Version | Graphics & Text | Print | Product List | Glossary Off
Versions: 1 2 3 4 5 6 7 8 9 10 11 12 13 14 15 16 17 18 19 20 21 22 23 24 25 26 27 28 29 30 31 32 33 34 35 36 37 38 39 40 41 42 43 44 45 46 47 48 49 50

000
ASUS43 KFSD 030210
RWRSD

WEATHER ROUNDUP FOR SOUTH DAKOTA
NATIONAL WEATHER SERVICE SIOUX FALLS SD
800 PM CST MON MAR 02 2015

NOTE: "FAIR" INDICATES FEW OR NO CLOUDS BELOW 12,000 FEET WITH NO
SIGNIFICANT WEATHER AND/OR OBSTRUCTIONS TO VISIBILITY.


SDZ001>005-009-010-012>017-030300-
NORTHWEST AND NORTH CENTRAL SOUTH DAKOTA

CITY           SKY/WX    TMP DP  RH WIND       PRES   REMARKS
BUFFALO          N/A     35  17  47 NW12      29.65S WCI  27
FAITH            N/A     38  11  32 MISG      29.70S
MOBRIDGE       MOCLDY    36  22  56 SE12      29.71S
$$

SDZ012>016-024>037-041>051-057-063-072>074-030300-
SOUTHWEST AND SOUTH CENTRAL SOUTH DAKOTA

CITY           SKY/WX    TMP DP  RH WIND       PRES   REMARKS
RAPID CTY ARPT CLOUDY    38  23  55 N15       29.66F
PIERRE         MOCLDY    37  15  40 SE10      29.75F
CUSTER         LGT SNOW  29  26  89 NE7       29.63S VSB 3/4 WCI  22
ELLSWORTH AFB  CLOUDY    39  23  53 NW10      29.66S
PHILIP         CLOUDY    39  19  44 E5        29.70F
PINE RIDGE     CLOUDY    34  22  61 S17G26    29.65F WCI  23
SPEARFISH      MOCLDY    34  23  64 NW7       29.71R WCI  28
WINNER         FAIR      38  16  40 S12       29.79S
$$

SDZ004>011-016>023-039-040-030300-
NORTHEAST SOUTH DAKOTA

CITY           SKY/WX    TMP DP  RH WIND       PRES   REMARKS
ABERDEEN       CLEAR     29  19  66 S23G31    29.85F WCI  15
WATERTOWN      CLOUDY    26  19  74 S21       29.90F WCI  12
SISSETON         N/A     28  19  69 S18       29.92F WCI  15
$$

SDZ017-020-022-023-036>040-048>070-030300-
SOUTHEAST SOUTH DAKOTA

CITY           SKY/WX    TMP DP  RH WIND       PRES   REMARKS
SIOUX FALLS    CLOUDY    29  21  72 SE17G25   29.97F WCI  17
HURON          CLOUDY    31  20  63 SE16G25   29.88F WCI  20
CHAMBERLAIN    MOCLDY    36  16  43 S14G20    29.83F
MITCHELL       CLOUDY    33  20  58 MISG      29.91F
YANKTON        CLOUDY    36  18  48 SE17      29.96F
$$

ABBREVIATIONS USED IN REMARKS
   TC - TEMPERATURE IN CELSIUS
  WCI - WIND CHILL INDEX
   HX - HEAT INDEX
  VSB - VISIBILITY



USA.gov is the U.S. government's official web portal to all federal, state and local government web resources and services.